Temperature
19 19 19 19 19 19 19 19 19 19 19 19 19 19 19 19 19 19 19 18 18 18 18 18 18 18 18 18 18 18 18 18 18 18 18 17 17 17 17 17 17 17 17
19 19 19 19 19 19 19 20 20 19 19 19 19 19 19 19 19 19 18 18 18 18 18 18 18 18 18 18 18 18 18 18 18 18 17 17 17 17 17 17 17 17 17
20 19 19 19 19 19 19 19 19 19 19 19 19 19 19 19 19 19 18 18 18 18 18 18 18 18 18 18 18 18 18 18 18 18 17 17 17 17 17 17 17 17 17
20 20 19 19 19 19 19 19 19 19 19 19 19 19 19 19 19 18 18 18 18 18 18 18 18 18 18 18 18 17 17 17 17 18 17 17 17 17 17 17 17 17 17
20 20 20 19 19 19 19 19 19 19 19 19 19 19 19 19 18 18 18 18 18 18 18 18 18 18 18 18 17 17 17 17 17 17 17 17 17 17 17 17 17 17 17
20 20 20 20 19 19 19 19 19 19 19 19 19 19 19 18 18 18 18 18 18 18 18 18 18 18 18 18 17 17 17 17 17 17 17 17 17 17 17 17 17 17 17
20 20 20 19 19 19 19 19 19 19 19 19 19 19 18 18 18 18 18 18 18 18 18 18 18 18 17 17 17 17 17 17 17 17 17 17 17 17 17 17 17 17 17
20 20 20 19 19 19 19 19 19 19 19 19 19 19 18 18 18 18 18 18 18 18 18 17 17 17 17 17 17 17 17 17 17 17 17 17 17 17 17 17 17 17 17
20 20 20 19 19 19 19 19 19 19 19 19 19 19 18 18 18 18 18 18 18 18 18 17 17 17 17 17 17 17 17 17 18 18 17 17 17 17 17 17 17 17 17
20 20 20 20 19 19 19 19 19 19 19 19 19 19 18 18 18 18 18 18 18 18 18 17 17 17 17 17 17 17 17 17 18 18 17 17 17 17 17 17 17 17 17
20 20 20 20 20 19 19 19 19 19 19 19 19 18 18 18 18 18 18 18 18 18 18 17 17 17 17 17 17 17 17 17 17 17 17 17 17 17 17 17 17 17 17
20 20 20 20 20 19 19 19 19 19 19 19 19 18 18 18 18 18 18 18 18 18 17 17 17 17 17 17 17 17 17 17 17 17 17 17 17 17 17 17 17 17 17
21 20 20 20 20 19 19 19 19 19 19 19 19 19 18 18 18 18 18 18 18 18 18 17 17 17 17 17 17 17 17 17 17 17 17 17 17 17 17 17 17 17 17
21 21 20 20 20 20 19 19 19 19 19 19 19 19 18 18 18 18 18 18 18 18 18 18 18 18 17 17 17 17 17 17 17 17 18 18 17 17 17 17 17 17 17
21 21 21 20 20 20 19 19 19 19 19 19 19 19 18 18 18 18 18 18 18 18 18 18 18 18 17 17 17 17 17 17 17 17 17 17 17 17 17 17 17 17 17
21 21 21 21 20 20 20 19 19 19 19 19 19 19 19 18 18 18 18 18 18 18 18 18 18 18 18 17 17 17 17 17 17 17 17 17 17 17 17 17 17 17 17
21 21 21 21 20 20 20 20 19 19 19 19 19 18 18 18 18 18 18 18 18 18 18 18 18 18 18 17 17 17 17 17 17 17 17 17 17 17 17 17 17 17 16
21 21 21 20 20 20 20 19 19 19 19 19 18 18 18 18 18 18 18 18 18 18 18 18 18 18 18 17 17 17 17 17 17 17 17 17 17 17 17 17 17 16 16
21 21 21 20 20 20 19 19 19 19 19 18 18 18 18 18 18 18 18 18 18 18 18 18 17 17 18 17 17 17 17 17 17 17 17 17 17 17 17 17 16 16 16
21 21 21 20 20 20 19 19 19 19 18 18 18 18 18 18 18 18 18 18 18 18 18 17 17 17 17 17 17 17 17 17 17 17 17 17 17 17 17 17 17 16 16
21 21 21 20 20 20 19 19 19 19 19 19 18 18 18 18 18 18 18 18 18 18 18 18 17 17 17 17 17 17 17 17 17 18 17 17 17 17 17 17 17 17 17
21 21 21 20 20 20 20 19 19 19 19 19 18 18 18 18 18 18 18 18 18 18 17 17 17 17 17 17 17 17 17 17 18 18 18 18 18 17 17 17 17 17 17
22 21 21 21 20 20 20 19 19 19 18 18 18 18 18 18 18 18 18 18 18 18 18 18 17 17 17 17 17 17 17 17 18 18 18 18 18 18 18 17 17 17 17
22 22 21 21 20 20 19 19 19 19 18 19 18 18 18 18 18 18 18 18 18 18 18 18 17 17 17 17 17 17 17 17 17 18 18 18 18 18 18 18 18 17 17
22 22 21 21 20 20 19 19 19 18 18 18 18 18 18 18 18 18 18 18 18 18 18 18 17 17 17 17 17 17 17 17 17 17 17 18 18 18 18 18 18 18 17
22 22 21 21 20 20 19 19 19 19 18 18 18 18 18 18 18 18 18 17 18 18 18 18 17 17 17 17 17 17 17 17 17 17 17 17 18 18 18 18 18 18 18
Wind_Speed
6 9 15 16 16 17 18 19 19 20 20 20 20 19 19 18 17 17 17 16 16 16 16 17 17 17 17 17 17 17 17 17 17 18 18 18 17 17 18 18 17 16 18
10 13 16 16 16 17 17 18 18 19 19 19 18 18 18 17 16 16 16 16 16 16 17 17 17 17 17 17 17 17 17 17 17 17 17 16 17 17 17 17 16 16 18
12 13 16 16 16 16 17 17 17 18 18 17 17 17 16 16 16 15 15 15 16 16 16 16 17 17 17 17 17 17 17 16 17 17 16 14 15 16 16 17 17 17 17
13 13 15 17 17 16 16 17 17 17 17 16 16 16 15 15 15 15 15 15 15 16 16 16 16 16 16 16 16 16 16 16 16 15 13 12 13 15 16 16 16 16 16
11 13 16 17 17 16 16 16 16 16 16 15 15 15 14 14 14 14 14 14 15 15 15 15 16 16 16 15 15 15 15 16 15 13 12 12 12 15 15 15 15 15 15
10 13 16 17 16 16 16 15 15 15 15 14 14 14 13 13 13 13 13 13 14 14 14 15 15 15 15 14 14 14 14 15 14 12 12 11 12 14 14 14 14 14 14
10 11 15 17 16 16 15 15 14 14 14 13 13 13 12 12 12 12 12 13 13 13 13 14 14 14 14 13 13 13 13 14 12 11 10 10 11 14 14 13 13 13 13
10 10 14 17 16 15 15 15 14 13 13 13 13 12 11 11 12 12 12 12 12 12 12 13 13 13 12 12 12 12 13 12 12 11 10 9 11 13 12 12 12 12 12
9 9 10 13 15 15 15 14 14 13 13 12 12 12 11 11 11 11 11 11 11 11 11 12 12 11 11 11 11 12 12 12 11 10 10 9 11 12 12 11 11 11 11
7 6 7 9 11 12 13 14 13 13 12 12 12 11 11 10 10 10 9 10 10 10 10 11 10 9 9 9 10 11 11 11 10 9 8 9 11 11 11 11 11 11 11
9 6 5 7 8 9 10 12 13 13 12 12 11 11 9 8 8 8 8 8 9 9 9 9 9 8 8 7 8 10 10 8 9 7 7 9 10 10 11 11 10 10 10
12 10 6 6 7 8 9 9 9 9 10 9 8 9 8 7 7 6 7 8 7 7 7 7 7 7 7 6 6 8 7 8 8 7 8 10 10 10 10 10 10 10 10
12 11 8 7 7 7 5 7 7 7 7 8 8 8 8 6 5 5 4 4 5 5 5 5 5 5 5 5 4 5 6 7 7 7 8 10 10 10 10 10 10 10 10
11 11 9 8 7 7 6 6 6 6 6 6 7 8 7 4 3 3 3 3 4 4 4 4 3 4 4 3 4 5 6 6 6 7 8 11 11 10 11 10 10 10 10
12 12 11 9 8 7 6 6 6 6 6 7 7 8 8 5 3 3 2 3 3 3 3 2 2 2 2 2 3 5 6 6 7 7 8 11 12 11 12 11 11 10 10
13 12 11 11 9 8 6 5 6 7 8 8 8 9 9 8 5 4 3 3 3 3 3 3 2 2 1 2 2 4 6 6 7 8 8 10 12 13 13 12 12 12 11
13 12 12 11 9 9 8 7 7 7 8 7 8 10 10 10 8 6 4 4 4 4 4 3 2 2 1 2 2 3 5 6 7 8 9 9 10 12 13 14 13 13 13
11 11 12 12 11 10 8 7 6 8 8 8 9 10 11 12 11 8 5 5 6 5 4 3 2 1 1 2 2 2 3 5 7 8 8 9 9 10 12 14 14 14 14
12 12 12 11 12 11 9 7 7 7 7 8 9 9 11 12 12 9 6 6 7 5 4 3 2 2 2 3 3 2 2 3 5 7 8 9 10 11 11 12 14 15 15
10 11 11 11 10 10 7 5 4 5 5 7 8 10 12 12 12 11 7 7 7 4 4 4 3 2 2 2 2 2 2 3 4 5 8 9 10 12 12 12 12 13 16
10 10 11 11 10 8 6 6 6 6 6 5 7 11 12 12 12 11 7 6 6 6 6 6 4 3 2 2 1 1 2 3 4 5 6 7 9 11 12 12 12 12 12
11 11 11 12 11 10 8 6 4 4 4 5 5 8 12 12 12 11 9 7 7 6 6 6 5 3 2 3 3 1 2 3 3 4 5 6 8 8 10 12 13 13 13
11 12 11 11 10 9 8 5 3 2 1 2 4 5 8 12 12 11 10 8 7 7 7 7 7 6 4 3 3 3 3 4 2 2 3 5 5 6 8 10 12 13 14
11 10 9 9 9 8 8 7 7 6 5 6 5 5 6 10 11 11 10 9 8 7 7 8 7 5 5 4 3 3 2 3 2 2 2 2 4 6 7 7 9 12 13
8 8 8 8 8 8 8 9 9 7 6 4 4 6 6 6 8 9 9 9 8 7 8 7 7 7 6 5 5 3 3 2 2 2 3 3 2 4 5 6 7 8 11
6 7 7 7 7 7 8 9 9 9 7 6 6 6 6 5 5 7 8 8 8 7 8 8 7 8 7 6 5 5 4 3 4 4 5 4 3 3 3 4 5 7 9
Wind_Direction
148 148 138 129 122 117 113 111 110 110 111 111 112 111 111 110 109 108 107 105 104 104 105 105 105 107 107 107 108 109 110 111 111 111 111 110 110 109 109 108 107 108 110
144 147 140 133 127 122 118 115 114 113 113 113 113 113 112 111 110 108 108 107 106 106 106 107 106 106 106 107 108 109 111 112 113 113 112 112 112 111 111 111 110 112 112
137 143 141 137 131 126 122 120 118 117 116 116 115 115 114 113 111 110 109 109 108 107 107 107 107 107 108 109 110 111 111 111 112 110 108 108 111 112 113 114 114 114 114
138 140 143 139 135 131 127 124 122 121 120 119 118 117 116 114 113 112 111 110 109 109 109 109 109 109 109 110 111 111 110 110 111 108 105 109 112 114 114 114 115 116 115
134 139 147 143 139 135 131 128 126 125 124 124 122 120 119 117 115 114 113 111 111 111 111 111 110 111 113 113 113 113 112 112 109 105 103 105 111 117 117 116 116 116 116
132 142 150 145 143 140 136 133 131 130 129 129 128 125 123 122 120 118 116 114 113 112 112 113 113 115 116 116 116 116 116 115 109 106 106 110 116 121 120 119 118 117 118
137 144 151 149 148 145 143 139 137 135 135 134 132 130 128 127 124 121 119 117 116 114 113 115 115 118 120 119 118 118 119 120 116 114 113 115 120 123 123 122 122 121 120
141 142 152 154 153 150 148 144 143 141 140 138 137 135 133 130 128 126 123 121 119 118 117 117 116 117 120 121 123 124 125 127 126 124 122 124 128 128 127 126 127 125 124
137 139 149 156 157 156 153 150 148 147 145 143 142 140 139 136 132 131 127 125 123 122 121 121 119 118 119 122 125 129 131 131 131 132 133 133 136 135 134 133 132 130 128
135 138 144 150 154 156 157 156 155 155 152 150 149 148 148 145 142 136 132 130 128 127 126 125 122 120 120 122 127 133 134 131 135 137 138 144 144 143 142 142 140 138 135
157 150 146 145 149 153 159 164 163 161 160 158 158 156 149 141 140 139 141 139 136 135 130 128 126 122 118 120 126 132 133 136 142 144 149 155 156 155 153 151 148 146 144
174 173 163 156 155 158 167 163 162 160 160 158 155 146 139 138 142 144 153 151 145 141 134 130 127 118 109 107 120 127 136 149 153 159 167 169 168 167 164 162 160 157 155
175 177 174 167 164 165 160 153 152 150 152 154 152 148 145 142 142 137 143 144 140 137 121 121 114 112 115 120 127 140 151 162 171 175 181 181 180 179 175 173 171 169 168
175 183 177 174 170 173 165 160 156 154 158 161 164 161 154 149 151 149 149 139 128 123 116 112 113 123 127 144 157 165 172 179 183 186 191 192 191 191 186 184 183 182 181
184 187 182 180 180 176 171 172 170 172 176 178 177 178 176 171 174 174 175 168 157 146 138 130 130 137 144 168 186 187 191 194 192 194 199 202 202 201 197 194 195 194 192
189 189 184 187 185 178 180 180 177 183 184 186 190 193 192 191 187 183 189 194 194 184 172 161 162 160 162 184 206 202 204 201 200 203 208 212 212 209 207 204 204 205 204
191 189 187 190 185 184 187 189 186 187 188 193 200 203 202 200 196 191 193 205 210 198 181 166 164 153 187 209 220 216 210 207 207 211 213 216 220 219 216 214 212 213 214
186 188 191 195 190 192 192 190 189 190 193 201 207 208 208 205 202 196 198 211 209 194 181 175 180 187 212 217 227 227 211 208 216 218 218 220 222 224 225 225 222 220 221
189 188 190 194 191 194 193 189 194 194 198 203 205 210 212 209 206 202 205 211 202 190 187 197 189 190 208 220 234 234 226 222 222 223 224 226 225 225 227 232 232 229 229
190 188 190 193 191 186 183 179 188 201 207 205 206 211 209 207 204 202 207 209 197 189 192 192 190 192 201 207 236 255 251 244 233 227 229 230 229 230 231 233 236 237 235
187 188 190 192 190 179 178 186 192 207 209 205 210 213 207 204 201 198 204 200 197 200 200 193 184 192 205 162 132 316 304 262 245 237 233 230 231 231 231 233 234 236 239
191 192 191 194 191 188 192 188 188 189 198 207 207 208 209 204 200 202 200 198 196 197 197 193 183 179 195 171 156 139 311 315 277 247 232 230 234 231 233 235 233 234 236
196 196 196 194 191 191 185 170 158 142 143 190 204 211 212 207 205 205 202 199 196 195 202 201 194 186 193 194 179 161 174 236 289 294 247 237 233 228 235 237 235 235 234
198 192 191 187 186 187 179 180 182 191 203 209 206 209 211 209 207 206 204 200 200 201 205 206 200 195 183 196 201 206 196 175 190 295 300 257 243 237 237 238 238 236 233
188 185 187 181 186 186 187 190 192 203 210 207 205 205 213 211 208 208 207 203 203 205 207 205 195 197 196 197 192 185 195 196 194 203 269 291 276 248 240 238 240 238 234
182 178 177 180 192 187 192 198 201 203 205 204 210 210 214 212 210 210 210 208 206 205 207 207 204 204 205 205 202 192 183 185 197 199 227 251 268 273 252 238 236 238 236
Height
1522 1524 1526 1528 1529 1530 1531 1532 1533 1534 1535 1536 1537 1538 1539 1540 1541 1542 1543 1544 1545 1546 1547 1549 1550 1551 1552 1553 1554 1555 1556 1557 1558 1559 1560 1561 1563 1564 1565 1566 1568 1569 1570
1521 1525 1528 1529 1531 1533 1534 1535 1536 1537 1538 1539 1540 1541 1542 1543 1544 1545 1546 1547 1548 1549 1550 1551 1552 1553 1555 1555 1556 1557 1558 1559 1560 1562 1563 1564 1565 1567 1568 1569 1570 1571 1573
1523 1526 1529 1531 1533 1535 1536 1537 1538 1539 1541 1542 1543 1544 1545 1546 1547 1548 1549 1550 1551 1552 1553 1554 1555 1556 1557 1558 1559 1560 1561 1562 1563 1564 1565 1566 1568 1569 1570 1571 1572 1574 1575
1525 1528 1531 1533 1535 1537 1538 1539 1541 1542 1543 1544 1546 1547 1548 1549 1550 1551 1552 1553 1553 1554 1555 1556 1557 1558 1559 1560 1561 1562 1563 1565 1566 1567 1568 1569 1570 1572 1573 1574 1575 1576 1578
1526 1529 1532 1535 1537 1539 1540 1542 1543 1544 1545 1547 1548 1549 1550 1551 1552 1553 1554 1555 1556 1557 1558 1559 1560 1561 1562 1563 1564 1565 1566 1567 1568 1569 1570 1572 1573 1574 1575 1576 1577 1578 1580
1528 1531 1534 1536 1539 1540 1542 1544 1545 1546 1547 1549 1550 1551 1552 1553 1555 1556 1556 1557 1558 1559 1560 1561 1562 1563 1564 1566 1567 1568 1569 1570 1571 1572 1573 1574 1575 1576 1577 1578 1579 1581 1582
1529 1533 1535 1538 1540 1542 1544 1545 1547 1548 1549 1551 1552 1553 1554 1556 1557 1558 1559 1559 1561 1562 1563 1564 1565 1566 1567 1568 1569 1570 1571 1572 1573 1574 1575 1576 1577 1578 1579 1580 1581 1583 1584
1531 1534 1537 1539 1541 1544 1545 1547 1548 1550 1551 1553 1554 1555 1556 1558 1559 1560 1561 1562 1563 1564 1565 1566 1567 1569 1570 1571 1572 1573 1573 1574 1575 1576 1577 1578 1579 1580 1581 1582 1583 1585 1586
1533 1535 1538 1540 1543 1545 1547 1548 1550 1551 1553 1554 1555 1557 1558 1559 1560 1562 1563 1564 1565 1566 1567 1568 1570 1571 1572 1573 1574 1575 1576 1576 1577 1578 1579 1580 1581 1582 1583 1584 1585 1586 1587
1534 1537 1539 1541 1544 1546 1547 1549 1551 1553 1554 1556 1557 1558 1559 1561 1562 1563 1564 1565 1567 1568 1569 1571 1572 1573 1574 1575 1576 1577 1578 1578 1579 1580 1581 1582 1583 1584 1585 1586 1587 1588 1589
1534 1537 1540 1542 1544 1546 1548 1550 1552 1553 1555 1557 1558 1559 1561 1562 1563 1564 1566 1567 1568 1570 1571 1572 1574 1575 1576 1577 1578 1579 1579 1580 1581 1581 1582 1583 1584 1585 1586 1587 1588 1589 1590
1533 1537 1540 1542 1545 1547 1549 1551 1552 1554 1556 1557 1559 1560 1562 1563 1564 1566 1567 1568 1570 1571 1572 1574 1575 1576 1577 1578 1579 1580 1581 1582 1582 1583 1583 1584 1585 1586 1587 1588 1589 1590 1591
1533 1536 1539 1542 1545 1547 1549 1551 1553 1555 1556 1558 1560 1561 1563 1564 1565 1566 1568 1569 1571 1572 1574 1575 1576 1577 1579 1580 1581 1581 1582 1583 1583 1584 1584 1585 1586 1586 1587 1588 1589 1590 1591
1533 1536 1539 1542 1545 1547 1550 1552 1553 1555 1557 1559 1560 1562 1563 1565 1566 1567 1569 1570 1572 1573 1575 1576 1577 1578 1580 1581 1582 1582 1583 1584 1584 1585 1585 1586 1586 1587 1588 1588 1589 1590 1591
1532 1535 1538 1541 1544 1547 1549 1551 1553 1555 1557 1559 1561 1562 1564 1565 1567 1568 1569 1571 1572 1574 1575 1577 1578 1579 1580 1581 1582 1583 1583 1584 1585 1585 1586 1586 1587 1587 1588 1589 1589 1590 1591
1532 1535 1538 1540 1543 1546 1548 1551 1553 1555 1557 1559 1561 1562 1564 1566 1567 1569 1570 1571 1573 1574 1576 1577 1578 1580 1581 1582 1582 1583 1584 1584 1585 1585 1586 1586 1587 1587 1588 1588 1589 1590 1591
1532 1535 1538 1540 1543 1545 1548 1550 1552 1554 1556 1558 1560 1562 1564 1566 1567 1569 1570 1571 1573 1574 1576 1577 1578 1579 1580 1581 1582 1583 1583 1584 1584 1585 1585 1586 1586 1587 1587 1588 1588 1589 1590
1532 1534 1537 1540 1542 1544 1547 1549 1552 1554 1556 1558 1560 1561 1563 1565 1567 1568 1569 1571 1573 1574 1575 1576 1578 1579 1580 1581 1582 1582 1583 1583 1584 1584 1585 1585 1585 1586 1586 1587 1587 1588 1589
1531 1534 1536 1538 1541 1543 1545 1548 1550 1553 1555 1557 1558 1560 1562 1564 1565 1567 1568 1570 1572 1573 1574 1575 1577 1578 1579 1580 1581 1581 1582 1582 1582 1583 1583 1584 1584 1585 1585 1586 1586 1587 1587
1529 1532 1534 1537 1539 1542 1544 1546 1549 1551 1553 1555 1556 1559 1560 1562 1563 1565 1567 1568 1570 1571 1573 1574 1575 1576 1578 1579 1579 1580 1580 1580 1580 1581 1581 1582 1583 1583 1584 1584 1584 1585 1585
1527 1529 1532 1534 1537 1539 1542 1544 1545 1547 1549 1551 1553 1556 1558 1560 1561 1563 1564 1566 1567 1569 1571 1572 1573 1574 1576 1577 1578 1578 1578 1578 1578 1578 1579 1580 1580 1581 1581 1582 1582 1583 1583
1524 1526 1529 1532 1534 1537 1539 1541 1543 1545 1547 1549 1551 1553 1555 1557 1558 1559 1561 1563 1565 1567 1569 1570 1571 1572 1573 1575 1576 1576 1576 1577 1576 1576 1576 1577 1578 1578 1579 1580 1580 1580 1581
1521 1523 1526 1529 1532 1534 1537 1539 1541 1543 1544 1546 1548 1549 1551 1553 1555 1556 1558 1560 1562 1564 1566 1567 1569 1570 1571 1572 1573 1575 1575 1574 1574 1574 1574 1574 1575 1576 1576 1577 1577 1578 1578
1517 1521 1524 1526 1529 1531 1534 1536 1537 1538 1540 1541 1544 1546 1548 1550 1552 1553 1555 1557 1559 1561 1562 1564 1566 1567 1568 1569 1570 1571 1573 1573 1573 1572 1572 1572 1572 1573 1574 1574 1575 1575 1576
1515 1518 1521 1524 1526 1528 1530 1532 1533 1535 1536 1538 1540 1542 1544 1546 1548 1549 1551 1553 1555 1557 1559 1561 1562 1564 1565 1566 1567 1568 1569 1570 1570 1571 1570 1570 1570 1570 1571 1571 1572 1572 1572
1513 1515 1518 1520 1523 1525 1527 1528 1529 1531 1532 1533 1535 1537 1539 1541 1543 1545 1547 1549 1551 1553 1555 1556 1558 1559 1560 1562 1563 1564 1565 1566 1567 1567 1567 1567 1567 1568 1568 1568 1568 1568 1569